When you browse on this site, cookies collect data to enhance your experience and personalize the content and advertising you see.
Visit our Privacy Policy to learn more. By continuing to use the site, you agree to this use of cookies and data.
  • In Austria
  • List of Countries
  • For 7 days
  • Water Temperature
  • Weather Map
  • News
  • Weather Widgets
  • user-avatar
    Login

    Hourly Weather Calnali

    Today, 19 August, Monday

    Time Temperature Precipitation Wind Pressure Humidity
    00:00 +20°C° 0.4 mm 1 mps 655 mmHg 95%
    01:00 +20°C° 0.4 mm 1 mps 655 mmHg 95%
    02:00 +19°C° 0.4 mm 1 mps 654 mmHg 95%
    03:00 +19°C° 0.7 mm 1 mps 654 mmHg 94%
    04:00 +19°C° 0.7 mm 1 mps 654 mmHg 94%
    05:00 +19°C° 0.7 mm 1 mps 655 mmHg 93%
    06:00 +20°C° 0.1 mm 1 mps 655 mmHg 89%
    07:00 +22°C° 0.1 mm 1 mps 656 mmHg 85%
    08:00 +23°C° 0.1 mm 1 mps 656 mmHg 81%
    09:00 +24°C° 0.3 mm 1 mps 656 mmHg 78%
    10:00 +25°C° 0.3 mm 2 mps 656 mmHg 75%
    11:00 +26°C° 0.3 mm 2 mps 657 mmHg 72%
    12:00 +25°C° 1.3 mm 2 mps 656 mmHg 74%
    13:00 +25°C° 1.3 mm 2 mps 655 mmHg 75%
    14:00 +25°C° 1.3 mm 1 mps 655 mmHg 77%
    15:00 +24°C° 1.1 mm 1 mps 655 mmHg 80%
    16:00 +24°C° 1.1 mm 1 mps 655 mmHg 83%
    17:00 +23°C° 1.1 mm 1 mps 655 mmHg 86%
    18:00 +22°C° 0.3 mm 1 mps 655 mmHg 88%
    19:00 +20°C° 0.3 mm 1 mps 655 mmHg 90%
    20:00 +19°C° 0.3 mm 1 mps 655 mmHg 92%
    21:00 +19°C° 0.1 mm 1 mps 655 mmHg 93%
    22:00 +19°C° 0.1 mm 1 mps 656 mmHg 93%
    23:00 +18°C° 0.1 mm 1 mps 656 mmHg 94%

    Tomorrow, 20 August, Tuesday

    Time Temperature Precipitation Wind Pressure Humidity
    00:00 +18°C° 0 mm 1 mps 655 mmHg 94%
    01:00 +18°C° 0 mm 1 mps 655 mmHg 94%
    02:00 +18°C° 0 mm 1 mps 655 mmHg 94%
    03:00 +18°C° 0 mm 1 mps 655 mmHg 93%
    04:00 +16°C° 0 mm 1 mps 655 mmHg 93%
    05:00 +16°C° 0 mm 1 mps 655 mmHg 93%
    06:00 +19°C° 0 mm 1 mps 656 mmHg 88%
    07:00 +20°C° 0 mm 1 mps 657 mmHg 83%
    08:00 +22°C° 0 mm 1 mps 657 mmHg 78%
    09:00 +23°C° 0 mm 1 mps 657 mmHg 73%
    10:00 +24°C° 0 mm 2 mps 657 mmHg 68%
    11:00 +25°C° 0 mm 2 mps 657 mmHg 63%
    12:00 +25°C° 0.2 mm 2 mps 657 mmHg 63%
    13:00 +25°C° 0.2 mm 2 mps 656 mmHg 63%
    14:00 +25°C° 0.2 mm 2 mps 656 mmHg 63%
    15:00 +24°C° 0.7 mm 2 mps 656 mmHg 70%
    16:00 +23°C° 0.7 mm 1 mps 655 mmHg 77%
    17:00 +22°C° 0.7 mm 1 mps 655 mmHg 84%
    18:00 +21°C° 0.7 mm 1 mps 656 mmHg 87%
    19:00 +20°C° 0.7 mm 1 mps 656 mmHg 89%
    20:00 +19°C° 0.7 mm 1 mps 656 mmHg 92%
    21:00 +19°C° 0.2 mm 1 mps 656 mmHg 92%
    22:00 +18°C° 0.2 mm 1 mps 656 mmHg 93%
    23:00 +18°C° 0.2 mm 1 mps 656 mmHg 93%

    Day after tomorrow, 21 August, Wednesday

    Time Temperature Precipitation Wind Pressure Humidity
    00:00 +18°C° 0 mm 1 mps 656 mmHg 93%
    01:00 +18°C° 0 mm 1 mps 655 mmHg 92%
    02:00 +18°C° 0 mm 1 mps 655 mmHg 92%
    03:00 +16°C° 0 mm 1 mps 655 mmHg 92%
    04:00 +16°C° 0 mm 1 mps 655 mmHg 92%
    05:00 +16°C° 0 mm 1 mps 655 mmHg 92%
    06:00 +19°C° 0 mm 1 mps 656 mmHg 86%
    07:00 +21°C° 0 mm 1 mps 657 mmHg 80%
    08:00 +21°C° 0 mm 0 mps 657 mmHg 74%
    09:00 +24°C° 0.3 mm 1 mps 657 mmHg 73%
    10:00 +24°C° 0.3 mm 1 mps 657 mmHg 72%
    11:00 +25°C° 0.3 mm 2 mps 657 mmHg 71%
    12:00 +25°C° 1 mm 2 mps 656 mmHg 71%
    13:00 +25°C° 1 mm 2 mps 656 mmHg 72%
    14:00 +25°C° 1 mm 2 mps 655 mmHg 73%
    15:00 +24°C° 1.5 mm 1 mps 655 mmHg 77%
    16:00 +23°C° 1.5 mm 1 mps 655 mmHg 81%
    17:00 +22°C° 1.5 mm 1 mps 655 mmHg 86%
    18:00 +21°C° 1 mm 1 mps 655 mmHg 88%
    19:00 +20°C° 1 mm 1 mps 655 mmHg 90%
    20:00 +19°C° 1 mm 1 mps 655 mmHg 92%
    21:00 +19°C° 0.2 mm 1 mps 655 mmHg 92%
    22:00 +19°C° 0.2 mm 1 mps 655 mmHg 92%
    23:00 +19°C° 0.2 mm 1 mps 655 mmHg 91%

    22 August, Thursday

    Time Temperature Precipitation Wind Pressure Humidity
    00:00 +18°C° 0 mm 1 mps 654 mmHg 91%
    01:00 +18°C° 0 mm 1 mps 654 mmHg 91%
    02:00 +18°C° 0 mm 1 mps 653 mmHg 91%
    03:00 +18°C° 0 mm 1 mps 654 mmHg 91%
    04:00 +18°C° 0 mm 1 mps 654 mmHg 90%
    05:00 +18°C° 0 mm 1 mps 654 mmHg 90%
    06:00 +20°C° 0 mm 1 mps 655 mmHg 84%
    07:00 +20°C° 0 mm 0 mps 656 mmHg 77%
    08:00 +22°C° 0 mm 0 mps 656 mmHg 70%
    09:00 +25°C° 0 mm 1 mps 656 mmHg 67%
    10:00 +26°C° 0 mm 1 mps 656 mmHg 64%
    11:00 +27°C° 0 mm 2 mps 656 mmHg 61%
    12:00 +27°C° 0.8 mm 2 mps 655 mmHg 66%
    13:00 +26°C° 0.8 mm 2 mps 655 mmHg 71%
    14:00 +25°C° 0.8 mm 2 mps 654 mmHg 76%
    15:00 +25°C° 0.7 mm 2 mps 654 mmHg 78%
    16:00 +24°C° 0.7 mm 1 mps 654 mmHg 80%
    17:00 +24°C° 0.7 mm 1 mps 654 mmHg 83%
    18:00 +23°C° 0 mm 1 mps 654 mmHg 86%
    19:00 +21°C° 0 mm 1 mps 654 mmHg 89%
    20:00 +20°C° 0 mm 1 mps 654 mmHg 92%
    21:00 +20°C° 0 mm 1 mps 654 mmHg 93%
    22:00 +20°C° 0 mm 1 mps 654 mmHg 93%
    23:00 +19°C° 0 mm 1 mps 654 mmHg 94%

    23 August, Friday

    Time Temperature Precipitation Wind Pressure Humidity
    00:00 +19°C° 0 mm 1 mps 654 mmHg 93%
    01:00 +19°C° 0 mm 1 mps 654 mmHg 93%
    02:00 +19°C° 0 mm 1 mps 654 mmHg 92%
    03:00 +19°C° 0.1 mm 1 mps 654 mmHg 92%
    04:00 +19°C° 0.1 mm 1 mps 654 mmHg 92%
    05:00 +18°C° 0.1 mm 1 mps 654 mmHg 91%
    06:00 +20°C° 0 mm 1 mps 655 mmHg 86%
    07:00 +22°C° 0 mm 1 mps 656 mmHg 80%
    08:00 +24°C° 0 mm 1 mps 657 mmHg 74%
    09:00 +25°C° 0.1 mm 1 mps 657 mmHg 73%
    10:00 +26°C° 0.1 mm 1 mps 657 mmHg 71%
    11:00 +27°C° 0.1 mm 2 mps 657 mmHg 69%
    12:00 +26°C° 0.9 mm 2 mps 656 mmHg 73%
    13:00 +26°C° 0.9 mm 1 mps 655 mmHg 76%
    14:00 +25°C° 0.9 mm 1 mps 654 mmHg 80%
    15:00 +24°C° 2 mm 1 mps 654 mmHg 84%
    16:00 +23°C° 2 mm 1 mps 654 mmHg 89%
    17:00 +22°C° 2 mm 1 mps 654 mmHg 93%
    18:00 +21°C° 0.5 mm 1 mps 654 mmHg 92%
    19:00 +21°C° 0.5 mm 1 mps 655 mmHg 91%
    20:00 +20°C° 0.5 mm 1 mps 655 mmHg 90%
    21:00 +20°C° 0.6 mm 1 mps 656 mmHg 90%
    22:00 +20°C° 0.6 mm 1 mps 656 mmHg 90%
    23:00 +20°C° 0.6 mm 1 mps 656 mmHg 90%

    24 August, Saturday

    Time Temperature Precipitation Wind Pressure Humidity
    00:00 +20°C° 0.2 mm 1 mps 656 mmHg 89%
    01:00 +19°C° 0.2 mm 1 mps 655 mmHg 89%
    02:00 +18°C° 0.2 mm 2 mps 655 mmHg 88%
    03:00 +19°C° 0.1 mm 1 mps 655 mmHg 87%
    04:00 +19°C° 0.1 mm 1 mps 655 mmHg 86%
    05:00 +19°C° 0.1 mm 1 mps 655 mmHg 85%
    06:00 +20°C° 0 mm 1 mps 656 mmHg 79%
    07:00 +20°C° 0 mm 0 mps 657 mmHg 74%
    08:00 +22°C° 0 mm 0 mps 658 mmHg 69%
    09:00 +25°C° 0 mm 1 mps 658 mmHg 65%
    10:00 +26°C° 0 mm 1 mps 658 mmHg 62%
    11:00 +28°C° 0 mm 2 mps 658 mmHg 59%
    12:00 +28°C° 0.2 mm 2 mps 657 mmHg 60%
    13:00 +28°C° 0.2 mm 2 mps 657 mmHg 62%
    14:00 +28°C° 0.2 mm 2 mps 656 mmHg 64%
    15:00 +27°C° 0.4 mm 2 mps 656 mmHg 70%
    16:00 +26°C° 0.4 mm 2 mps 656 mmHg 77%
    17:00 +25°C° 0.4 mm 1 mps 655 mmHg 84%
    18:00 +24°C° 0.6 mm 1 mps 655 mmHg 87%
    19:00 +23°C° 0.6 mm 1 mps 655 mmHg 91%
    20:00 +22°C° 0.6 mm 1 mps 655 mmHg 94%
    21:00 +19°C° 0.4 mm 0 mps 655 mmHg 95%
    22:00 +19°C° 0.4 mm 0 mps 655 mmHg 95%
    23:00 +19°C° 0.4 mm 0 mps 655 mmHg 96%
    Show more